Regional Weather Roundup
Issued by NWS

Home | Current Version | Previous Version | Graphics & Text | Print | Product List | Glossary Off
Versions: 1 2 3 4 5 6 7 8 9 10 11 12 13 14 15 16 17 18 19 20 21 22 23 24 25 26 27 28 29 30 31 32 33 34 35 36 37 38 39 40 41 42 43 44 45 46 47 48 49 50

000
ASUS43 KTOP 091208
RWRKS

WEATHER ROUNDUP FOR KANSAS
NATIONAL WEATHER SERVICE GOODLAND KS
600 AM CST TUE FEB 09 2016

NOTE:  "FAIR" INDICATES FEW OR NO CLOUDS BELOW 12,000 FEET WITH NO
SIGNIFICANT WEATHER AND/OR OBSTRUCTIONS TO VISIBILITY.

KSZ001>006-013>018-027>032-041>047-091300-
NORTHWEST KANSAS

CITY           SKY/WX    TMP DP  RH WIND       PRES   REMARKS
GOODLAND       CLOUDY    20  17  88 NW6       30.22R
6HR MIN TEMP:  20; 6HR MAX TEMP:  29;

HAYS           MOCLDY    34  16  47 NW9       30.21R
HILL CITY      CLOUDY    31  21  66 W7        30.23R
6HR MIN TEMP:  31; 6HR MAX TEMP:  35;

RUSSELL        CLOUDY    30  22  72 N8        30.20R
6HR MIN TEMP:  29; 6HR MAX TEMP:  34;

$$

KSZ061>065-074>080-084>089-091300-
SOUTHWEST KANSAS

CITY           SKY/WX    TMP DP  RH WIND       PRES   REMARKS
DODGE CITY     CLEAR     26  21  81 NW12      30.23R WCI  16
6HR MIN TEMP:  26; 6HR MAX TEMP:  31;

ELKHART          N/A     30  19  63 W10         N/A  WCI  21
GARDEN CITY    CLOUDY    26  22  84 NW8       30.24R
6HR MIN TEMP:  25; 6HR MAX TEMP:  30;

GREAT BEND     CLOUDY    34  18  51 NW9       30.22R
LIBERAL        CLOUDY    34  23  64 W10       30.26R WCI  26
PRATT          MOCLDY    28  18  67 NW8       30.22R
6HR MIN TEMP:  26; 6HR MAX TEMP:  32;

$$

KSZ066>073-081>083-090>101-091300-
SOUTHEAST KANSAS

CITY           SKY/WX    TMP DP  RH WIND       PRES   REMARKS
CHANUTE        CLEAR     30  19  63 NW13      30.12R WCI  20
6HR MIN TEMP:  26; 6HR MAX TEMP:  32;

COFFEYVILLE    PTCLDY    30  18  60 NW12      30.15R WCI  20
6HR MIN TEMP:  29; 6HR MAX TEMP:  32;

HUTCHINSON     CLOUDY    34  17  50 NW10      30.20R WCI  26
6HR MIN TEMP:  28; 6HR MAX TEMP:  34;

MEDICINE LODGE   N/A     28  19  69 NW6       30.22R
NEWTON         CLEAR     28  16  59 N15G21    30.18R WCI  17
PARSONS        CLEAR     29  19  66 NW12      30.14R WCI  19
6HR MIN TEMP:  28; 6HR MAX TEMP:  32;

WICHITA INTL   MOCLDY    32  18  56 NW13      30.19R WCI  22
6HR MIN TEMP:  29; 6HR MAX TEMP:  32;

WICHITA JABRA  CLEAR     29  18  63 NW13      30.18R WCI  19
6HR MIN TEMP:  28; 6HR MAX TEMP:  33;

WICHITA MCCONL CLEAR     31  18  58 NW14      30.18R WCI  21
WINFIELD       CLEAR     26  19  74 NW9       30.20R
6HR MIN TEMP:  24; 6HR MAX TEMP:  30;

$$

KSZ007>012-019>026-033>040-048>060-102>105-091300-
NORTHEAST KANSAS

CITY           SKY/WX    TMP DP  RH WIND       PRES   REMARKS
CONCORDIA      CLEAR     25  17  72 NW10      30.21R WCI  15
6HR MIN TEMP:  25; 6HR MAX TEMP:  29;

EMPORIA        CLEAR     28  17  63 NW15G25   30.14R WCI  16
6HR MIN TEMP:  28; 6HR MAX TEMP:  31;

LAWRENCE       CLEAR     24  10  55 NW22G33   30.11R WCI   9
6HR MIN TEMP:  23; 6HR MAX TEMP:  31;

MANHATTAN      CLEAR     27  19  72 VRB6      30.18R
6HR MIN TEMP:  27; 6HR MAX TEMP:  31;

MARYSVILLE     CLEAR     23  12  63 N20G25    30.17R WCI   8
OLATHE IND     CLEAR     24   9  52 NW28G38   30.08R WCI   7
6HR MIN TEMP:  24; 6HR MAX TEMP:  30;

OLATHE EXE     CLEAR     23   8  52 NW13G25   30.06R WCI  11
6HR MIN TEMP:  23; 6HR MAX TEMP:  28;

SALINA         MOCLDY    31  18  58 NW13      30.20R WCI  21
6HR MIN TEMP:  30; 6HR MAX TEMP:  33;

TOPEKA BILLARD CLEAR     26   9  48 NW22G30   30.14R WCI  12
6HR MIN TEMP:  26; 6HR MAX TEMP:  34;

TOPEKA FORBES  CLEAR     27  13  55 NW25G33   30.12R WCI  12
6HR MIN TEMP:  27; 6HR MAX TEMP:  35;

$$



USA.gov is the U.S. government's official web portal to all federal, state and local government web resources and services.